Location: Conflandey
(47.7287°N, 6.0456°E)
Time: 03:59:08
(UTC+00:00)

IRAS Rocket - Pass Details

Date: 24 October 2021
Orbit: 847 x 878 km, 100.1° (Epoch: 05 December)

Event Time Altitude Azimuth Distance (km) Brightness Sun altitude
Rises 18:02:22 0° 19° (NNE) 3,456 7.2 -16.0°
Reaches altitude 10° 18:04:48 10° 23° (NNE) 2,510 6.4 -16.4°
Maximum altitude 18:10:19 60° 103° (ESE) 974 4.2 -17.3°
Drops below altitude 10° 18:15:44 10° 184° (S) 2,473 6.6 -18.2°
Sets 18:18:06 0° 188° (S) 3,402 7.4 -18.6°
